Barrow, AK

5:31 PM AKDT on June 24, 2018 (GMT -0800)
Wiley Post-Will Rogers Memorial

Weather History for PABR - November, 2017

Change the Weather History Date:

Sunday, November 19, 2017

  Actual Average Record
Temperature  
Mean Temperature 7 °F -1 °F  
Max Temperature 11 °F 4 °F 28 °F (1964)
Min Temperature 3 °F -7 °F -35 °F (1939)
Degree Days  
Heating Degree Days 58 66  
Month to date heating degree days 705 1181  
Since 1 July heating degree days 4205 5204  
Cooling Degree Days 0 0  
Month to date cooling degree days 0 0  
Year to date cooling degree days 0 0  
Moisture  
Dew Point 3 °F    
Average Humidity 82    
Maximum Humidity 88    
Minimum Humidity 76    
Precipitation  
Precipitation T in 0.00 in 0.15 in (1966)
Month to date precipitation 0.69 0.14  
Year to date precipitation 7.73 4.32  
Snow  
Snow T in 0.20 in 1.70 in (1966)
Month to date snowfall 4.9 4.0  
Since 1 July snowfall 12.8 18.6  
Since 1 September snowfall 12.0 17.5  
Snow Depth 5.00 in    
Sea Level Pressure  
Sea Level Pressure 30.01 in    
Wind  
Wind Speed 21 mph (East)    
Max Wind Speed 26 mph    
Max Gust Speed 32 mph    
Visibility 4 miles    
Events Fog , Snow    
T = Trace of Precipitation, MM = Missing Value Source: NWS Daily Summary

Daily Weather History Graph

Daily Weather History Graph

Search for Another Location

Airport or City:

Astronomy

Nov. 19, 2017 Rise Set
Actual Time 12:40 PM AKST 1:45 PM AKST
Civil Twilight 10:12 AM AKST 4:11 PM AKST
Nautical Twilight 8:38 AM AKST 5:46 PM AKST
Astronomical Twilight 7:19 AM AKST 7:04 PM AKST
Moon 1:17 PM AKST (11/19) 3:22 PM AKST (11/19)
Length of Visible Light 5h 58m
Length of Day
1h 04m
New Moon, 2% of the Moon is Illuminated
Nov 19
New Moon
Nov 26
First Quarter
Dec 3
Full
Dec 9
Last Quarter
Dec 17
New

Hourly Weather History & Observations

Time (AKST) Temp. Windchill Dew Point Humidity Pressure Visibility Wind Dir Wind Speed Gust Speed Precip Events Conditions
12:12 AM 10.9 °F -8.3 °F 7.0 °F 84% 29.89 in 2.0 mi ENE 21.9 mph - 0.00 in Snow Light Snow
12:24 AM 10.9 °F -8.3 °F 7.0 °F 84% 29.89 in 4.0 mi East 21.9 mph - 0.00 in   Overcast
12:53 AM 10.9 °F -9.6 °F 7.0 °F 84% 29.89 in 1.8 mi East 25.3 mph - 0.00 in Snow Light Snow
1:02 AM 10.9 °F -7.5 °F 6.1 °F 81% 29.89 in 3.0 mi East 19.6 mph - 0.00 in   Overcast
1:20 AM 10.9 °F -9.2 °F 7.0 °F 84% 29.88 in 2.5 mi East 24.2 mph - 0.00 in   Overcast
1:41 AM 10.9 °F -7.9 °F 6.1 °F 81% 29.88 in 4.0 mi ENE 20.7 mph - 0.00 in   Haze
1:53 AM 10.9 °F -9.6 °F 7.0 °F 84% 29.88 in 2.0 mi East 25.3 mph - 0.00 in Snow Light Snow
2:26 AM 10.0 °F -10.4 °F 6.1 °F 84% 29.88 in 4.0 mi East 24.2 mph - 0.00 in Snow Light Snow
2:34 AM 10.0 °F -10.0 °F 7.0 °F 87% 29.87 in 1.8 mi ENE 23.0 mph - 0.00 in Snow Light Snow
2:45 AM 10.0 °F -10.4 °F 6.1 °F 84% 29.88 in 2.5 mi East 24.2 mph - 0.00 in   Overcast
2:53 AM 10.0 °F -10.0 °F 6.1 °F 84% 29.88 in 2.0 mi ENE 23.0 mph - 0.00 in   Overcast
3:23 AM 9.0 °F -11.8 °F 5.0 °F 84% 29.88 in 1.5 mi ENE 24.2 mph - 0.00 in Snow Light Snow
3:35 AM 9.0 °F -11.4 °F 5.0 °F 84% 29.88 in 2.5 mi ENE 23.0 mph 32.2 mph 0.00 in Snow Light Snow
3:53 AM 9.0 °F -9.5 °F 5.0 °F 84% 29.88 in 3.0 mi East 18.4 mph - 0.00 in   Overcast
4:03 AM 9.0 °F -9.5 °F 5.0 °F 84% 29.88 in 2.5 mi East 18.4 mph - N/A   Overcast
4:13 AM 9.0 °F -10.5 °F 5.0 °F 84% 29.88 in 1.2 mi East 20.7 mph - 0.00 in Snow Light Snow
4:33 AM 9.0 °F -9.5 °F 5.0 °F 84% 29.88 in 2.5 mi East 18.4 mph - 0.00 in   Overcast
4:49 AM 8.6 °F -12.3 °F 5.0 °F 85% 29.88 in 1.5 mi ENE 24.2 mph 29.9 mph 0.00 in Snow Light Snow
4:53 AM 8.6 °F -11.4 °F 5.0 °F 85% 29.88 in 1.8 mi East 21.9 mph 29.9 mph N/A   Overcast
5:15 AM 9.0 °F -12.6 °F 6.1 °F 88% 29.89 in 0.5 mi ENE 26.5 mph - 0.00 in Fog , Snow Light Snow
5:24 AM 8.1 °F -12.6 °F 3.9 °F 83% 29.89 in 1.0 mi ENE 23.0 mph - 0.00 in Snow Light Snow
5:53 AM 8.1 °F -13.4 °F 3.9 °F 83% 29.91 in 1.5 mi ENE 25.3 mph - 0.00 in Snow Light Snow
6:26 AM 8.1 °F -13.0 °F 3.9 °F 83% 29.91 in 2.5 mi East 24.2 mph - 0.00 in   Overcast
6:53 AM 9.0 °F -10.0 °F 5.0 °F 84% 29.94 in 2.5 mi East 19.6 mph - 0.00 in   Overcast
6:56 AM 9.0 °F -11.0 °F 5.0 °F 84% 29.93 in 3.0 mi ENE 21.9 mph - N/A   Overcast
7:09 AM 8.1 °F -12.2 °F 3.9 °F 83% 29.93 in 2.5 mi East 21.9 mph - N/A   Overcast
7:16 AM 8.1 °F -13.0 °F 3.0 °F 80% 29.93 in 3.0 mi ENE 24.2 mph - N/A   Haze
7:53 AM 8.1 °F -13.4 °F 3.9 °F 83% 29.97 in 1.8 mi East 25.3 mph - 0.00 in Snow Light Snow
8:12 AM 7.0 °F -14.5 °F 3.0 °F 84% 29.97 in 2.5 mi ENE 24.2 mph - 0.00 in   Overcast
8:53 AM 8.1 °F -11.7 °F 3.0 °F 80% 30.00 in 2.0 mi ENE 20.7 mph - 0.00 in Snow Light Snow
9:33 AM 8.1 °F -12.2 °F 3.0 °F 80% 30.01 in 3.0 mi East 21.9 mph - 0.00 in   Overcast
9:53 AM 8.1 °F -10.7 °F 3.0 °F 80% 30.04 in 3.0 mi East 18.4 mph - 0.00 in   Overcast
10:53 AM 8.1 °F -10.2 °F 1.9 °F 76% 30.06 in 5.0 mi ENE 17.3 mph - 0.00 in   Overcast
11:53 AM 8.1 °F -11.7 °F 1.9 °F 76% 30.09 in 5.0 mi ENE 20.7 mph - 0.00 in   Overcast
12:53 PM 7.0 °F -10.4 °F 1.9 °F 80% 30.12 in 7.0 mi ENE 15.0 mph - N/A   Overcast
1:53 PM 7.0 °F -8.3 °F 1.9 °F 80% 30.16 in 10.0 mi East 11.5 mph - N/A   Overcast
2:53 PM 6.1 °F -10.9 °F 1.0 °F 80% 30.19 in 10.0 mi ESE 13.8 mph - N/A   Overcast
3:53 PM 5.0 °F -10.0 °F -0.0 °F 80% 30.22 in 10.0 mi SE 10.4 mph - N/A   Overcast
4:53 PM 3.9 °F -10.4 °F -0.0 °F 84% 30.24 in 10.0 mi SE 9.2 mph - N/A   Overcast
5:53 PM 3.9 °F -9.4 °F -0.9 °F 80% 30.27 in 10.0 mi SE 8.1 mph - N/A   Overcast
6:53 PM 3.9 °F -11.3 °F -0.9 °F 80% 30.29 in 10.0 mi SSE 10.4 mph - N/A   Overcast
7:53 PM 3.9 °F -10.4 °F -2.0 °F 76% 30.32 in 10.0 mi South 9.2 mph - N/A   Overcast
8:53 PM 3.0 °F -14.1 °F -2.0 °F 80% 30.32 in 10.0 mi South 12.7 mph - N/A   Overcast
9:53 PM 3.0 °F -15.5 °F -2.0 °F 80% 30.33 in 10.0 mi SSE 15.0 mph - N/A   Overcast
10:53 PM 3.0 °F -14.8 °F -2.0 °F 80% 30.35 in 10.0 mi SSE 13.8 mph - N/A   Overcast
11:53 PM 3.0 °F -14.8 °F -2.0 °F 80% 30.36 in 10.0 mi South 13.8 mph - N/A   Overcast